Wind_Speed
10 12 11 12 14 15 17 17 17 18 20 22 20 16 16 17 15 11 8 7 7 6 6 4 4 7 8 9 7 6 8 11 13 15 18 16 17 17 21 23 22 21 25 29 39 43 43 41 40
7 10 11 10 12 12 13 14 14 15 15 17 18 15 15 13 12 10 9 8 7 8 9 10 10 11 9 10 12 11 10 11 14 16 17 18 17 19 21 21 25 26 24 25 30 37 44 45 43
8 9 10 12 12 12 12 13 15 16 16 14 15 16 12 14 16 13 9 7 8 8 7 8 12 12 15 14 15 15 16 17 16 18 21 22 22 22 24 22 21 23 26 27 27 30 35 44 47
12 11 9 11 13 13 15 11 11 12 18 14 11 9 11 12 19 16 13 10 8 6 7 8 9 14 16 18 21 21 20 22 22 19 22 26 27 26 25 27 27 26 23 25 29 27 31 34 44
12 12 12 12 14 16 16 13 11 11 15 14 14 13 9 15 17 16 13 12 10 10 10 11 12 13 13 16 18 23 24 25 25 26 26 26 31 32 32 30 30 30 30 28 28 30 30 31 37
12 13 15 16 15 16 18 15 13 12 14 17 15 15 17 19 19 20 20 15 13 15 15 13 13 14 17 18 20 21 25 27 29 32 33 32 32 35 36 36 34 34 33 33 32 31 32 32 32
12 14 16 18 18 18 18 19 15 14 16 19 18 19 19 20 21 24 22 20 18 18 20 18 19 20 20 20 22 24 26 29 31 32 32 34 36 36 40 42 42 40 38 37 36 35 34 35 36
17 19 19 21 22 20 20 21 18 18 18 21 21 22 22 22 23 24 25 23 22 22 24 23 22 23 24 24 25 27 29 32 34 34 36 35 33 36 41 44 46 47 44 41 40 39 38 35 37
17 18 19 20 21 22 22 24 22 19 20 21 22 25 25 26 27 27 28 28 28 27 27 27 28 28 27 27 30 32 34 34 38 40 40 39 37 41 42 47 48 49 50 49 44 45 43 41 38
16 17 18 20 23 23 23 25 22 19 21 20 24 25 26 27 28 29 31 31 31 31 31 31 31 30 31 32 34 37 39 41 40 42 42 42 43 42 45 48 52 53 52 53 54 51 51 47 44
18 18 17 18 20 24 23 24 24 21 21 24 26 26 27 30 32 32 35 34 34 34 34 36 35 35 35 36 37 40 42 45 46 48 47 47 47 47 51 52 56 57 57 57 58 58 57 56 52
17 17 17 17 19 22 22 24 25 23 23 23 25 29 31 31 33 35 36 37 37 39 40 41 41 41 41 43 44 43 47 50 51 51 53 54 55 55 55 59 59 61 64 63 62 62 62 61 60
18 19 20 20 21 24 25 26 25 23 23 24 28 31 32 34 35 38 38 38 38 40 42 43 44 46 47 49 48 50 52 53 55 57 59 59 59 62 64 63 66 68 70 70 68 68 66 65 65
19 20 22 23 25 29 30 30 30 29 28 28 28 28 34 35 38 38 38 38 40 42 43 47 50 51 53 53 52 56 58 58 59 62 64 66 66 66 68 72 75 75 77 78 75 74 71 68 66
23 23 25 26 26 29 31 30 32 34 31 30 31 33 36 37 39 38 38 41 40 43 46 50 52 53 54 55 57 61 62 63 65 69 71 70 71 72 73 75 77 82 82 84 85 81 78 75 71
26 28 29 31 29 28 31 29 32 32 33 34 33 34 36 37 39 39 42 42 43 48 51 50 51 53 56 58 61 62 65 68 72 75 75 73 75 76 76 76 76 80 87 89 89 87 84 81 76
30 33 36 36 36 34 34 31 31 32 33 33 34 36 36 40 42 44 46 47 51 52 53 53 54 57 57 60 63 67 72 74 76 79 79 79 78 79 81 79 78 79 81 88 90 88 85 83 79
35 37 38 40 41 41 43 37 36 36 34 34 33 34 37 37 43 46 49 50 51 51 55 56 57 58 59 65 68 71 72 76 78 82 82 82 84 83 83 84 83 82 83 88 94 96 93 89 85
38 40 42 39 42 44 44 42 41 40 39 36 38 38 41 42 45 45 48 51 51 55 58 57 59 61 64 69 67 69 75 80 82 81 82 86 88 85 86 81 81 81 84 86 89 101 100 96 92
38 41 41 43 48 49 47 48 41 43 42 39 37 42 42 46 46 49 51 53 56 56 57 59 61 62 66 68 72 77 81 83 80 82 88 84 82 84 82 84 82 82 84 85 90 97 99 95 85
37 42 43 48 52 52 50 50 45 42 43 41 43 43 44 47 49 50 52 55 55 55 57 57 60 63 68 73 79 83 82 78 82 85 86 82 78 81 82 85 87 83 77 73 78 92 98 90 96
40 41 45 49 54 56 49 55 51 44 39 43 44 47 49 53 53 53 56 57 56 56 57 58 60 67 73 79 83 83 79 81 87 84 82 75 80 87 87 81 64 61 67 68 64 70 85 88 96
43 44 47 50 53 57 52 55 49 46 45 44 47 53 53 53 54 59 61 60 57 57 57 57 65 72 78 82 82 80 84 87 84 80 81 82 85 87 86 57 50 59 64 57 62 60 57 80 80
47 48 51 54 56 60 60 59 52 53 50 48 53 59 58 57 58 60 62 59 56 57 57 62 69 76 81 81 79 83 88 84 79 83 78 82 90 92 63 49 47 54 52 55 62 64 59 75 98
49 52 56 58 62 64 62 63 59 59 56 53 58 58 59 57 60 62 60 56 56 56 60 66 72 78 80 78 80 87 84 78 82 84 82 87 89 82 47 49 48 49 53 54 59 65 61 83 94
50 51 56 59 62 64 66 67 64 60 55 56 58 59 58 62 62 64 57 55 57 61 64 70 75 78 78 76 83 87 81 81 83 84 84 89 90 71 46 46 50 55 50 57 57 59 50 87 83
53 53 56 61 65 68 67 67 64 62 59 59 60 62 62 65 65 60 56 57 60 66 69 74 77 77 74 78 85 85 81 81 85 83 84 91 90 68 50 54 61 58 53 59 61 57 54 90 83
56 57 58 59 69 72 67 63 69 63 68 62 64 65 67 68 62 57 56 59 66 69 72 76 79 74 73 81 86 84 81 82 84 83 85 92 87 63 54 56 51 50 54 57 63 60 49 104 83
57 58 61 63 70 77 78 59 69 67 64 64 66 68 70 65 56 55 56 63 69 72 76 78 75 72 76 83 85 83 81 83 85 84 87 92 82 56 52 51 48 43 50 55 60 55 46 96 90
59 62 63 69 71 77 83 70 64 64 60 66 68 71 68 57 53 53 61 67 72 74 78 75 71 72 80 85 84 82 81 82 82 84 89 92 73 52 46 47 49 47 47 53 59 55 47 90 96
Wind_Direction
38 40 46 49 36 30 31 39 41 40 42 37 37 27 28 21 21 26 25 32 16 359 359 343 298 302 315 325 330 325 321 321 324 322 328 317 320 317 298 292 291 282 270 264 257 254 255 254 252
19 16 9 23 28 15 18 24 26 28 29 28 25 20 10 9 8 2 2 0 7 7 343 332 318 315 301 293 282 277 277 285 292 299 301 306 304 308 307 312 295 288 284 275 262 257 252 253 253
311 333 344 350 356 350 356 7 9 6 5 10 22 4 357 347 357 351 340 330 332 332 324 321 307 304 299 291 278 273 275 275 271 281 284 285 288 291 293 296 297 301 289 284 278 264 256 251 252
292 307 323 328 335 335 336 355 9 359 350 356 9 357 339 328 348 343 334 307 289 301 302 317 318 303 299 300 299 296 287 274 274 279 280 281 280 278 279 285 290 291 290 289 279 273 263 254 250
299 301 305 314 320 323 320 331 344 350 344 337 342 347 314 312 335 332 321 307 303 308 286 277 304 302 289 280 303 293 288 284 285 281 279 281 278 275 277 275 279 281 285 285 283 274 267 259 250
299 297 302 307 311 309 306 310 323 335 330 323 328 330 317 322 325 322 317 311 307 317 314 297 285 298 295 281 279 290 276 280 282 284 286 281 279 279 274 276 275 275 273 278 280 276 270 263 256
293 294 298 299 301 301 296 297 313 317 319 319 322 322 316 318 314 315 312 307 307 309 310 297 299 298 294 288 288 294 289 285 283 277 285 284 282 278 276 272 272 271 270 269 270 275 269 266 261
300 298 299 300 301 299 297 297 302 310 310 313 317 317 315 310 306 306 303 300 298 302 309 306 305 303 300 296 295 303 298 285 279 282 278 283 285 285 277 272 269 270 269 266 266 265 269 266 260
307 300 300 300 299 300 296 295 300 305 303 310 311 310 308 307 304 305 303 302 301 302 305 305 308 307 303 298 297 297 301 290 280 277 277 275 281 277 276 272 269 267 266 266 263 265 260 264 262
313 307 304 298 295 294 294 295 297 301 302 302 302 301 303 303 301 301 302 301 297 301 302 303 304 301 301 298 292 291 295 296 287 277 276 276 282 283 272 272 270 265 266 264 263 261 261 257 259
334 322 309 301 299 296 296 296 299 303 303 301 300 303 302 303 302 302 301 301 298 298 297 298 299 299 298 297 299 294 292 292 292 285 278 274 275 274 270 267 268 264 262 264 264 261 259 259 255
337 334 326 316 307 300 302 298 301 306 300 300 302 302 302 299 299 303 305 307 304 306 305 302 299 297 296 298 299 298 296 290 287 284 280 275 272 270 269 263 263 264 261 260 260 262 257 256 256
332 330 328 324 315 307 305 304 304 301 299 299 300 302 304 303 304 305 304 305 306 308 309 306 303 299 298 299 298 300 301 295 290 288 282 274 269 268 266 265 262 261 260 257 258 258 257 254 254
332 326 323 320 316 309 304 302 301 296 295 295 294 297 298 300 302 304 304 307 312 314 311 307 304 303 302 299 297 299 299 298 294 290 286 279 275 270 266 262 262 259 258 260 257 256 257 253 252
329 329 324 320 317 311 307 305 295 294 295 295 300 300 300 302 301 305 304 306 311 313 312 307 304 304 302 301 300 299 299 297 293 291 286 282 280 275 270 267 263 263 261 259 259 256 255 255 252
323 325 323 319 317 314 311 311 303 302 303 302 303 298 298 302 303 305 304 309 311 313 314 309 306 304 302 299 300 301 301 298 293 289 285 282 280 279 275 271 264 259 260 259 258 256 252 254 254
315 321 325 325 321 316 309 308 303 308 307 308 304 304 307 305 304 303 303 304 305 310 314 311 306 304 303 302 302 303 301 296 291 288 288 288 288 286 283 279 273 266 257 255 255 254 253 250 251
311 315 319 319 319 321 315 312 312 312 315 310 307 310 310 312 308 305 307 308 308 312 312 310 307 304 305 307 306 303 300 293 290 289 291 291 290 289 288 283 278 273 263 254 252 251 249 249 248
310 312 315 318 315 315 315 312 312 311 312 309 308 311 312 311 308 309 310 310 312 314 312 309 308 307 310 308 307 302 296 291 292 298 297 293 293 296 294 289 284 276 268 261 255 251 249 248 250
310 311 314 318 315 315 312 310 310 312 317 315 314 315 314 310 306 307 314 316 314 312 310 310 310 310 311 309 304 298 294 296 301 300 299 304 305 301 296 293 285 279 273 261 254 248 246 243 240
310 310 312 314 314 314 313 306 308 311 309 309 311 309 307 309 310 312 314 312 310 309 308 309 309 311 312 305 299 298 302 305 304 304 305 307 302 298 298 295 290 283 274 265 253 246 244 239 236
306 306 308 312 312 311 317 306 311 317 312 311 312 312 307 308 312 314 313 313 312 310 310 310 312 312 307 301 300 303 306 306 306 309 308 306 301 306 303 297 277 268 269 267 251 246 237 234 233
303 304 305 311 315 310 312 307 307 317 310 312 314 312 310 311 315 316 315 314 311 311 311 310 315 309 303 303 306 308 309 310 312 310 310 306 306 310 308 281 271 272 269 251 243 247 240 216 208
301 303 304 308 312 310 311 311 311 316 309 312 313 312 313 314 315 315 314 311 309 312 311 313 312 305 304 307 308 308 309 312 311 312 309 309 314 313 301 274 274 277 263 237 244 252 255 229 203
302 304 305 306 310 311 312 307 310 309 313 313 312 314 311 313 313 314 312 308 308 311 314 309 307 305 307 309 307 307 311 312 313 313 311 316 316 315 296 282 270 282 256 252 252 255 260 221 205
301 302 303 304 307 306 306 305 308 309 314 312 312 310 311 313 313 314 311 308 311 315 312 308 306 307 308 308 307 310 312 312 315 315 314 318 316 311 293 288 283 274 264 251 253 258 263 219 196
300 302 303 304 307 307 305 305 307 313 317 312 312 310 310 311 316 314 312 311 313 313 310 306 307 308 308 307 308 312 311 312 314 317 317 317 316 307 292 285 288 273 265 250 248 255 261 215 211
298 302 303 303 304 306 303 301 303 315 317 313 311 311 312 314 315 313 312 311 307 307 307 306 307 308 308 307 309 313 313 313 315 316 318 317 317 304 297 296 295 270 254 249 241 248 256 206 192
296 299 300 300 304 307 307 307 305 312 315 313 311 312 312 313 312 312 310 308 304 305 304 306 308 307 307 307 312 314 312 315 316 316 319 316 315 300 305 299 295 284 258 245 238 240 248 217 196
297 297 299 299 305 306 305 306 310 308 310 306 307 309 310 309 309 310 311 304 302 304 306 307 306 306 307 310 314 313 313 317 316 318 320 317 313 297 304 301 293 295 262 239 233 235 239 206 193
Height
5875 5873 5873 5872 5873 5870 5868 5868 5865 5864 5862 5860 5858 5858 5856 5854 5852 5853 5848 5846 5845 5844 5843 5842 5841 5839 5837 5836 5836 5835 5834 5834 5833 5832 5831 5830 5829 5828 5826 5825 5825 5825 5824 5826 5826 5828 5830 5832 5836
5875 5874 5872 5871 5872 5870 5868 5865 5863 5862 5862 5860 5858 5857 5855 5854 5852 5849 5847 5845 5843 5842 5841 5840 5839 5837 5836 5834 5832 5831 5830 5829 5829 5828 5827 5827 5825 5825 5824 5823 5821 5820 5820 5820 5820 5821 5823 5825 5828
5876 5875 5873 5870 5868 5868 5868 5866 5863 5861 5861 5860 5858 5855 5854 5852 5850 5848 5847 5843 5840 5838 5837 5836 5835 5834 5832 5832 5831 5829 5827 5826 5826 5824 5822 5822 5821 5820 5819 5819 5817 5815 5815 5815 5815 5815 5816 5818 5820
5875 5874 5873 5870 5867 5867 5866 5865 5863 5861 5857 5858 5857 5855 5852 5849 5848 5846 5844 5843 5841 5838 5835 5833 5833 5832 5830 5828 5826 5825 5824 5823 5820 5817 5818 5817 5815 5814 5813 5813 5812 5810 5809 5808 5808 5809 5810 5811 5812
5872 5871 5870 5868 5866 5864 5863 5861 5861 5859 5856 5854 5854 5852 5851 5847 5845 5843 5841 5839 5838 5836 5833 5831 5829 5826 5825 5824 5823 5821 5819 5817 5814 5813 5811 5809 5809 5809 5807 5806 5806 5805 5804 5803 5802 5802 5802 5804 5804
5869 5868 5867 5866 5864 5862 5860 5858 5858 5857 5853 5850 5850 5849 5846 5843 5842 5840 5837 5835 5833 5831 5829 5827 5825 5823 5821 5821 5819 5817 5814 5812 5810 5808 5806 5803 5802 5801 5800 5800 5799 5798 5797 5797 5796 5795 5795 5795 5797
5866 5864 5863 5862 5861 5860 5857 5854 5855 5853 5849 5846 5845 5844 5842 5840 5837 5834 5831 5830 5828 5826 5825 5822 5821 5819 5818 5817 5814 5812 5810 5807 5803 5802 5799 5796 5795 5794 5793 5792 5791 5791 5789 5789 5789 5788 5787 5788 5788
5862 5861 5859 5858 5856 5855 5852 5851 5851 5850 5846 5842 5839 5838 5836 5834 5832 5829 5827 5825 5823 5820 5819 5818 5816 5815 5812 5810 5808 5805 5802 5800 5797 5793 5791 5790 5787 5785 5784 5783 5783 5782 5781 5780 5779 5780 5780 5779 5780
5859 5857 5855 5853 5851 5848 5847 5846 5847 5845 5842 5839 5835 5832 5830 5828 5825 5823 5820 5819 5817 5816 5815 5812 5810 5807 5805 5803 5800 5797 5795 5792 5790 5787 5783 5779 5779 5777 5774 5773 5772 5771 5770 5769 5770 5769 5770 5771 5772
5855 5853 5851 5849 5846 5844 5843 5840 5841 5840 5837 5833 5830 5827 5825 5823 5821 5818 5816 5814 5812 5809 5806 5804 5801 5799 5796 5793 5790 5788 5785 5782 5780 5776 5773 5770 5765 5764 5763 5762 5761 5761 5760 5759 5759 5759 5758 5759 5762
5851 5849 5846 5845 5842 5838 5837 5835 5833 5833 5831 5828 5824 5822 5821 5818 5815 5812 5808 5806 5804 5802 5800 5798 5795 5792 5789 5784 5782 5778 5774 5771 5767 5763 5760 5757 5755 5752 5751 5750 5749 5747 5747 5747 5746 5746 5746 5747 5749
5848 5845 5842 5840 5836 5832 5831 5829 5827 5826 5824 5821 5819 5816 5814 5809 5806 5804 5801 5799 5796 5794 5791 5787 5784 5780 5776 5773 5769 5766 5762 5759 5755 5751 5746 5743 5740 5738 5737 5736 5734 5732 5731 5732 5731 5731 5732 5733 5735
5846 5842 5839 5835 5831 5827 5824 5823 5822 5821 5819 5816 5813 5810 5807 5804 5801 5797 5794 5790 5787 5784 5782 5778 5773 5768 5764 5761 5757 5753 5749 5744 5740 5735 5730 5727 5724 5721 5718 5717 5715 5714 5714 5714 5715 5715 5716 5718 5720
5843 5839 5836 5832 5828 5823 5820 5818 5816 5814 5813 5811 5808 5804 5799 5795 5791 5787 5783 5780 5778 5775 5771 5766 5761 5756 5752 5749 5744 5739 5733 5727 5723 5719 5714 5708 5705 5704 5702 5699 5697 5695 5693 5693 5696 5699 5699 5701 5702
5838 5835 5831 5828 5825 5819 5813 5813 5809 5806 5805 5804 5802 5798 5794 5789 5783 5779 5776 5772 5769 5765 5760 5754 5749 5745 5740 5734 5729 5723 5718 5712 5707 5700 5692 5688 5685 5683 5681 5679 5678 5673 5673 5672 5675 5680 5682 5683 5687
5832 5830 5827 5821 5818 5814 5808 5807 5800 5798 5797 5795 5793 5788 5785 5780 5775 5770 5765 5762 5758 5753 5748 5741 5735 5729 5725 5719 5714 5707 5703 5695 5686 5677 5671 5666 5662 5657 5655 5654 5656 5657 5653 5652 5653 5657 5660 5665 5667
5827 5823 5818 5814 5809 5806 5803 5801 5797 5793 5789 5786 5782 5778 5774 5769 5763 5758 5754 5750 5745 5741 5734 5728 5721 5715 5709 5704 5700 5693 5686 5677 5668 5658 5651 5644 5639 5634 5632 5632 5632 5630 5631 5629 5628 5632 5636 5641 5647
5820 5816 5814 5807 5801 5796 5790 5789 5786 5782 5778 5774 5770 5767 5762 5758 5753 5747 5742 5736 5731 5726 5719 5713 5706 5701 5695 5689 5683 5675 5665 5654 5643 5634 5629 5623 5619 5612 5606 5605 5602 5600 5601 5604 5602 5604 5611 5616 5624
5812 5808 5803 5801 5795 5788 5783 5779 5776 5772 5768 5763 5760 5756 5751 5745 5737 5733 5731 5726 5719 5712 5705 5699 5692 5685 5678 5672 5664 5656 5645 5632 5622 5616 5609 5600 5594 5587 5580 5574 5570 5566 5567 5570 5570 5573 5580 5592 5600
5804 5798 5795 5791 5784 5779 5774 5767 5769 5763 5759 5753 5749 5744 5739 5733 5728 5724 5718 5712 5704 5699 5691 5683 5675 5667 5658 5651 5641 5630 5619 5610 5604 5597 5586 5576 5568 5558 5549 5539 5535 5534 5530 5531 5534 5538 5546 5563 5579
5797 5789 5785 5779 5772 5769 5765 5753 5757 5756 5749 5745 5740 5735 5728 5721 5715 5710 5705 5698 5689 5681 5673 5666 5656 5648 5640 5629 5618 5607 5597 5589 5583 5573 5565 5554 5542 5531 5520 5507 5496 5489 5484 5488 5491 5499 5512 5530 5549
5788 5784 5776 5771 5764 5756 5756 5738 5744 5745 5738 5733 5727 5720 5715 5709 5703 5698 5690 5683 5674 5666 5657 5649 5640 5631 5620 5608 5596 5585 5577 5572 5559 5550 5541 5532 5518 5505 5489 5475 5463 5459 5456 5457 5463 5467 5477 5495 5522
5777 5772 5765 5761 5755 5745 5747 5733 5728 5730 5724 5720 5715 5707 5701 5694 5689 5683 5675 5666 5659 5651 5643 5634 5625 5614 5601 5588 5575 5564 5557 5547 5538 5526 5516 5505 5493 5478 5459 5446 5441 5438 5434 5436 5443 5448 5456 5470 5494
5766 5761 5754 5749 5742 5734 5729 5722 5718 5715 5710 5707 5699 5690 5685 5680 5674 5668 5661 5653 5644 5635 5628 5619 5608 5595 5583 5570 5557 5547 5537 5528 5518 5507 5497 5483 5469 5454 5437 5427 5424 5419 5416 5422 5425 5429 5435 5444 5463
5755 5749 5740 5736 5730 5721 5715 5705 5704 5700 5696 5692 5683 5677 5671 5667 5660 5653 5646 5637 5629 5621 5612 5601 5590 5578 5565 5556 5544 5532 5519 5510 5498 5484 5472 5460 5446 5431 5421 5412 5408 5405 5404 5407 5410 5414 5415 5422 5437
5746 5741 5730 5722 5718 5711 5704 5694 5691 5687 5685 5680 5671 5663 5658 5651 5644 5636 5629 5622 5615 5605 5594 5584 5572 5562 5552 5542 5528 5514 5503 5492 5481 5467 5450 5436 5420 5410 5404 5397 5392 5391 5388 5390 5390 5394 5399 5402 5420
5732 5729 5722 5704 5703 5696 5690 5682 5675 5673 5672 5662 5656 5647 5641 5634 5628 5620 5613 5605 5596 5586 5578 5567 5557 5548 5537 5526 5512 5499 5486 5474 5461 5447 5433 5418 5400 5389 5385 5379 5370 5366 5367 5368 5371 5373 5380 5386 5400
5718 5715 5708 5699 5685 5681 5679 5671 5660 5661 5652 5648 5641 5634 5627 5619 5612 5605 5597 5589 5580 5568 5560 5552 5542 5531 5522 5510 5496 5482 5469 5457 5442 5427 5414 5398 5381 5366 5363 5356 5347 5342 5345 5346 5351 5356 5360 5369 5386
5708 5703 5696 5686 5675 5660 5654 5661 5648 5646 5640 5634 5625 5620 5613 5607 5598 5591 5584 5576 5565 5557 5547 5537 5525 5516 5507 5495 5481 5468 5454 5440 5424 5409 5394 5377 5361 5347 5342 5335 5330 5325 5323 5325 5332 5340 5347 5354 5378
5694 5688 5682 5668 5664 5653 5638 5635 5639 5632 5629 5618 5612 5607 5600 5593 5587 5579 5570 5560 5551 5543 5532 5522 5512 5502 5490 5478 5465 5453 5438 5425 5410 5393 5376 5358 5343 5331 5325 5319 5313 5308 5304 5308 5315 5327 5332 5346 5365